Flag for Australia Weather past 2 weeks in Melbourne, Victoria, Australia

Now
63 °F

Clear.


Feels Like: 63 °F
Forecast: 57 / 73 °F
Wind: 14 mph from South

Location: Melbourne Airport

Current Time: Oct 22, 2014 at 11:17:24 PM

Latest Report: Oct 22, 2014 at 10:30 PM


Visibility: 10 mi

Pressure: 30.07 "Hg

Humidity: 73%

Dew point: 54 °F

Location of MelbourneLocation

Historic Weather in Melbourne — Graph

°F

Melbourne temperature yesterday

Maximum temperature yesterday: 81 °F (at 4:00 PM)
Minimum temperature yesterday: 43 °F (at 4:00 AM)
Average temperature yesterday: 62 °F

Past Weeks' High & Low Weather Summary

 TemperatureHumidityPressure
High88 °F (Oct 12, 3:03 PM)100% (Oct 9, 2:30 AM)30.42 "Hg (Oct 9, 2:30 AM)
Low41 °F (Oct 15, 1:00 AM)17% (Oct 12, 3:03 PM)29.65 "Hg (Oct 12, 3:30 PM)
Average58 °F62%30.11 "Hg
* Reported Oct 7 10:00 PM — Oct 22 10:00 PM, Melbourne, Weather by CustomWeather, © 2014

Note: Actual official high and low records may vary slightly from our data, if they occured in-between our weather recording intervals... More about our weather records

Advertising

Melbourne weather history for previous 24 hours

 ConditionsComfort  
Time TempWeatherWind HumidityBarometerVisibility
10:00 PM
Oct 22
66 °FClear.8 mph60%30.07 "Hg10 mi
9:30 PM68 °FClear.10 mph56%30.07 "Hg10 mi
9:00 PM72 °FClear.13 mph50%30.07 "Hg10 mi
8:30 PM75 °FClear.13 mph44%30.01 "Hg10 mi
7:30 PM79 °FSunny.9 mph39%29.98 "Hg10 mi
7:00 PM82 °FSunny.13 mph32%29.95 "Hg10 mi
6:30 PM84 °FSunny.15 mph31%29.95 "Hg10 mi
6:00 PM84 °FSunny.17 mph31%29.95 "Hg10 mi
5:30 PM86 °FSunny.21 mph29%29.95 "Hg10 mi
5:00 PM88 °FSunny.23 mph25%29.95 "Hg10 mi
4:00 PM84 °FSunny.22 mph31%29.98 "Hg10 mi
3:30 PM84 °FSunny.22 mph31%29.98 "Hg10 mi
3:00 PM88 °FSunny.21 mph27%29.98 "Hg10 mi
2:30 PM86 °FSunny.22 mph29%30.01 "Hg10 mi
2:00 PM86 °FSunny.22 mph29%30.01 "Hg10 mi
1:30 PM84 °FSunny.23 mph33%30.01 "Hg10 mi
1:00 PM82 °FSunny.23 mph32%30.04 "Hg10 mi
12:30 PM81 °FSunny.24 mph37%30.04 "Hg10 mi
11:30 AM77 °FSunny.26 mph39%30.07 "Hg10 mi
11:00 AM75 °FSunny.29 mph41%30.09 "Hg10 mi
10:30 AM73 °FSunny.30 mph44%30.09 "Hg10 mi
10:00 AM72 °FSunny.32 mph44%30.09 "Hg10 mi
9:30 AM70 °FSunny.36 mph46%30.09 "Hg10 mi
9:00 AM68 °FSunny.35 mph49%30.09 "Hg10 mi
8:00 AM66 °FSunny.33 mph52%30.09 "Hg10 mi
7:30 AM64 °FSunny.32 mph56%30.09 "Hg10 mi
7:00 AM64 °FSunny.28 mph56%30.09 "Hg10 mi
6:30 AM64 °FSunny.24 mph56%30.09 "Hg10 mi
6:00 AM64 °FClear.22 mph56%30.09 "Hg10 mi
5:30 AM64 °FClear.20 mph56%30.09 "Hg10 mi
5:00 AM64 °FClear.20 mph56%30.09 "Hg10 mi
4:30 AM64 °FClear.20 mph56%30.09 "Hg10 mi
4:00 AM64 °FClear.18 mph56%30.09 "Hg10 mi
3:30 AM64 °FClear.17 mph56%30.09 "Hg10 mi
3:00 AM64 °FClear.16 mph56%30.12 "Hg10 mi
2:30 AM63 °FClear.14 mph59%30.12 "Hg10 mi
2:00 AM63 °FClear.10 mph59%30.12 "Hg10 mi
1:30 AM61 °FClear.10 mph63%30.15 "Hg10 mi
1:00 AM59 °FClear.9 mph72%30.15 "Hg10 mi
12:30 AM63 °FClear.10 mph59%30.15 "Hg10 mi
12:00 AM63 °FClear.9 mph64%30.18 "Hg10 mi
11:30 PM
Oct 21
63 °FClear.12 mph64%30.18 "Hg10 mi
11:00 PM61 °FClear.10 mph68%30.18 "Hg10 mi
Weather by CustomWeather, © 2014

See weather overviewHow to use our weather pages